Dilworth, MN

7:34 AM CST on December 04, 2016 (GMT -0600)
Moorhead Municipal

Weather History for KJKJ - December, 2013

Change the Weather History Date:

Friday, December 27, 2013

  Actual Average (KFAR) Record (KFAR)
Temperature  
Mean Temperature 32 °F 11 °F  
Max Temperature 39 °F 19 °F 46 °F (1928)
Min Temperature 24 °F 3 °F -34 °F (1883)
Degree Days  
Heating Degree Days 34 54  
Month to date heating degree days 1360  
Since 1 July heating degree days 3322  
Cooling Degree Days 0 0  
Month to date cooling degree days 0  
Year to date cooling degree days 551  
Moisture  
Dew Point 31 °F    
Average Humidity 97    
Maximum Humidity 100    
Minimum Humidity 81    
Precipitation  
Precipitation 0.00 in 0.03 in 0.13 in (1959)
Month to date precipitation 0.72  
Year to date precipitation 22.50  
Snow  
Snow 0.00 in 0.40 in 3.00 in (1923)
Month to date snowfall 9.6  
Since 1 July snowfall 18.2  
Snow Depth -    
Sea Level Pressure  
Sea Level Pressure 29.91 in    
Wind  
Wind Speed 10 mph (SW)    
Max Wind Speed 18 mph    
Max Gust Speed 22 mph    
Visibility 10 miles    
Events      
T = Trace of Precipitation, MM = Missing Value Source: NWS Daily Summary

Daily Weather History Graph

Daily Weather History Graph

Search for Another Location

Airport or City:

Trip Planner

Search our weather history database for the weather conditions in past years. The results will help you decide how hot, cold, wet, or windy it might be!

Date:

Astronomy

Dec. 27, 2013 Rise Set
Actual Time 8:11 AM CST 4:44 PM CST
Civil Twilight 7:35 AM CST 5:20 PM CST
Nautical Twilight 6:57 AM CST 5:58 PM CST
Astronomical Twilight 6:20 AM CST 6:35 PM CST
Moon 2:31 AM CST (12/27) 1:07 PM CST (12/27)
Length of Visible Light 9h 44m
Length of Day
8h 33m
Waning Crescent, 28% of the Moon is Illuminated
Dec 27
Waning Crescent
Jan 1
New
Jan 7
First Quarter
Jan 15
Full
Jan 23
Last Quarter

Hourly Weather History & Observations

Time (CST) Temp. Windchill Dew Point Humidity Pressure Visibility Wind Dir Wind Speed Gust Speed Precip Events Conditions
12:14 AM 28.4 °F 20.4 °F 26.6 °F 93% 30.04 in 10.0 mi South 8.1 mph - N/A   Overcast
12:35 AM 28.4 °F 20.4 °F 26.6 °F 93% 30.03 in 10.0 mi South 8.1 mph - N/A   Overcast
12:54 AM 28.4 °F 19.1 °F 28.4 °F 100% 30.03 in 10.0 mi SSW 10.4 mph - N/A   Overcast
1:14 AM 28.4 °F 20.4 °F 28.4 °F 100% 30.01 in 10.0 mi South 8.1 mph - N/A   Overcast
1:35 AM 28.4 °F 20.4 °F 28.4 °F 100% 30.01 in 10.0 mi South 8.1 mph - N/A   Overcast
1:54 AM 28.4 °F 19.7 °F 28.4 °F 100% 30.01 in 10.0 mi South 9.2 mph - N/A   Overcast
2:14 AM 30.2 °F 18.9 °F 28.4 °F 93% 30.00 in 10.0 mi SSW 16.1 mph - N/A   Overcast
2:35 AM 28.4 °F 16.2 °F 28.4 °F 100% 29.99 in 10.0 mi SSW 17.3 mph - N/A   Scattered Clouds
2:54 AM 28.4 °F 18.5 °F 28.4 °F 100% 29.97 in 10.0 mi SSW 11.5 mph - N/A   Clear
3:15 AM 28.4 °F 19.1 °F 28.4 °F 100% 29.97 in 10.0 mi South 10.4 mph - N/A   Clear
3:34 AM 28.4 °F 18.0 °F 28.4 °F 100% 29.95 in 10.0 mi South 12.7 mph 17.3 mph N/A   Clear
3:54 AM 26.6 °F 15.7 °F 26.6 °F 100% 29.94 in 10.0 mi South 12.7 mph 18.4 mph N/A   Clear
4:15 AM 26.6 °F 16.2 °F 26.6 °F 100% 29.93 in 10.0 mi South 11.5 mph - N/A   Clear
4:34 AM 24.8 °F 13.4 °F 24.8 °F 100% 29.93 in 10.0 mi South 12.7 mph - N/A   Clear
4:54 AM 24.8 °F 13.4 °F 24.8 °F 100% 29.91 in 10.0 mi South 12.7 mph 17.3 mph N/A   Clear
5:15 AM 24.8 °F 12.4 °F 24.8 °F 100% 29.89 in 10.0 mi South 15.0 mph - N/A   Clear
5:34 AM 24.8 °F 11.1 °F 24.8 °F 100% 29.87 in 5.0 mi South 18.4 mph 21.9 mph N/A   Mostly Cloudy
5:54 AM 26.6 °F 14.7 °F 26.6 °F 100% 29.86 in 7.0 mi South 15.0 mph - N/A   Overcast
6:15 AM 26.6 °F 16.2 °F 26.6 °F 100% 29.84 in 10.0 mi South 11.5 mph 21.9 mph N/A   Overcast
6:34 AM 28.4 °F 16.6 °F 26.6 °F 93% 29.83 in 10.0 mi South 16.1 mph 21.9 mph N/A   Overcast
6:55 AM 28.4 °F 17.5 °F 26.6 °F 93% 29.83 in 10.0 mi South 13.8 mph 19.6 mph N/A   Mostly Cloudy
7:14 AM 28.4 °F 18.0 °F 26.6 °F 93% 29.83 in 10.0 mi South 12.7 mph 18.4 mph N/A   Mostly Cloudy
7:35 AM 28.4 °F 18.5 °F 26.6 °F 93% 29.82 in 10.0 mi South 11.5 mph 20.7 mph N/A   Scattered Clouds
7:55 AM 28.4 °F 19.1 °F 26.6 °F 93% 29.83 in 10.0 mi South 10.4 mph 17.3 mph N/A   Clear
8:14 AM 28.4 °F 19.1 °F 26.6 °F 93% 29.83 in 10.0 mi South 10.4 mph - N/A   Clear
8:35 AM 26.6 °F 16.2 °F 26.6 °F 100% 29.83 in 10.0 mi South 11.5 mph - N/A   Clear
8:55 AM 26.6 °F 17.5 °F 26.6 °F 100% 29.83 in 10.0 mi South 9.2 mph - N/A   Clear
9:14 AM 26.6 °F 19.1 °F 26.6 °F 100% 29.83 in 10.0 mi South 6.9 mph - N/A   Clear
9:35 AM 28.4 °F 20.4 °F 26.6 °F 93% 29.83 in 10.0 mi SSW 8.1 mph - N/A   Clear
9:55 AM 28.4 °F 19.1 °F 26.6 °F 93% 29.84 in 10.0 mi SSW 10.4 mph - N/A   Clear
10:14 AM 28.4 °F 19.7 °F 26.6 °F 93% 29.84 in 10.0 mi SW 9.2 mph - N/A   Clear
10:35 AM 30.2 °F 25.4 °F 28.4 °F 93% 29.85 in 10.0 mi WSW 4.6 mph - N/A   Clear
10:55 AM 35.6 °F 27.1 °F 30.2 °F 81% 29.85 in 10.0 mi West 12.7 mph - N/A   Clear
11:15 AM 35.6 °F 28.0 °F 32.0 °F 87% 29.86 in 10.0 mi West 10.4 mph - N/A   Clear
11:35 AM 35.6 °F 27.5 °F 33.8 °F 93% 29.85 in 10.0 mi West 11.5 mph - N/A   Clear
11:54 AM 37.4 °F 28.9 °F 33.8 °F 87% 29.86 in 10.0 mi WNW 13.8 mph - N/A   Clear
12:15 PM 37.4 °F 28.9 °F 35.6 °F 93% 29.86 in 10.0 mi WNW 13.8 mph - N/A   Clear
12:35 PM 37.4 °F 29.3 °F 35.6 °F 93% 29.87 in 10.0 mi WNW 12.7 mph - N/A   Clear
12:54 PM 39.2 °F 30.8 °F 35.6 °F 87% 29.88 in 10.0 mi NW 15.0 mph - N/A   Clear
1:15 PM 39.2 °F 30.5 °F 35.6 °F 87% 29.88 in 10.0 mi NW 16.1 mph - N/A   Clear
1:34 PM 39.2 °F 30.8 °F 35.6 °F 87% 29.89 in 10.0 mi NNW 15.0 mph - N/A   Clear
1:55 PM 39.2 °F 30.8 °F 35.6 °F 87% 29.89 in 10.0 mi NNW 15.0 mph - N/A   Scattered Clouds
2:15 PM 37.4 °F 27.8 °F 35.6 °F 93% 29.90 in 10.0 mi NNW 17.3 mph - N/A   Mostly Cloudy
2:34 PM 37.4 °F 27.5 °F 35.6 °F 93% 29.90 in 10.0 mi NNW 18.4 mph - N/A   Scattered Clouds
2:55 PM 37.4 °F 29.8 °F 35.6 °F 93% 29.92 in 10.0 mi NNW 11.5 mph - N/A   Clear
3:15 PM 37.4 °F 30.8 °F 35.6 °F 93% 29.91 in 10.0 mi NNW 9.2 mph - N/A   Clear
3:34 PM 35.6 °F 29.2 °F 35.6 °F 100% 29.92 in 10.0 mi NNW 8.1 mph - N/A   Clear
3:55 PM 35.6 °F 28.6 °F 35.6 °F 100% 29.93 in 10.0 mi NNW 9.2 mph - N/A   Clear
4:14 PM 35.6 °F 29.2 °F 35.6 °F 100% 29.94 in 10.0 mi NNW 8.1 mph - N/A   Mostly Cloudy
4:35 PM 35.6 °F 28.6 °F 35.6 °F 100% 29.95 in 10.0 mi NNW 9.2 mph - N/A   Overcast
4:55 PM 35.6 °F 28.0 °F 35.6 °F 100% 29.96 in 10.0 mi NW 10.4 mph - N/A   Overcast
5:14 PM 35.6 °F 29.9 °F 35.6 °F 100% 29.96 in 10.0 mi NNW 6.9 mph - N/A   Overcast
5:35 PM 35.6 °F 29.9 °F 35.6 °F 100% 29.96 in 10.0 mi NNW 6.9 mph - N/A   Overcast
5:55 PM 35.6 °F 29.9 °F 35.6 °F 100% 29.97 in 10.0 mi North 6.9 mph - N/A   Overcast
6:14 PM 35.6 °F 31.7 °F 35.6 °F 100% 29.97 in 10.0 mi North 4.6 mph - N/A   Overcast
6:35 PM 35.6 °F 32.8 °F 35.6 °F 100% 29.96 in 10.0 mi North 3.5 mph - N/A   Overcast
6:55 PM 35.6 °F - 35.6 °F 100% 29.96 in 10.0 mi Calm Calm - N/A   Overcast
7:14 PM 35.6 °F - 35.6 °F 100% 29.96 in 10.0 mi Calm Calm - N/A   Overcast
7:35 PM 35.6 °F - 35.6 °F 100% 29.95 in 10.0 mi Calm Calm - N/A   Overcast
7:55 PM 33.8 °F - 33.8 °F 100% 29.96 in 10.0 mi Calm Calm - N/A   Overcast
8:14 PM 33.8 °F 30.8 °F 33.8 °F 100% 29.96 in 10.0 mi SSW 3.5 mph - N/A   Overcast
8:35 PM 33.8 °F - 33.8 °F 100% 29.96 in 10.0 mi Calm Calm - N/A   Overcast
8:54 PM 33.8 °F - 33.8 °F 100% 29.96 in 10.0 mi Calm Calm - N/A   Overcast
9:15 PM 33.8 °F - 33.8 °F 100% 29.94 in 10.0 mi Calm Calm - N/A   Overcast
9:35 PM 33.8 °F - 33.8 °F 100% 29.93 in 10.0 mi Calm Calm - N/A   Overcast
9:54 PM 33.8 °F - 33.8 °F 100% 29.93 in 10.0 mi Calm Calm - N/A   Overcast
10:15 PM 33.8 °F - 33.8 °F 100% 29.93 in 10.0 mi Calm Calm - N/A   Overcast
10:35 PM 33.8 °F - 33.8 °F 100% 29.93 in 10.0 mi Calm Calm - N/A   Overcast
10:54 PM 35.6 °F 32.8 °F 35.6 °F 100% 29.92 in 10.0 mi South 3.5 mph - N/A   Overcast
11:15 PM 33.8 °F - 33.8 °F 100% 29.93 in 10.0 mi Calm Calm - N/A   Overcast
11:35 PM 33.8 °F 29.6 °F 33.8 °F 100% 29.91 in 10.0 mi South 4.6 mph - N/A   Overcast
11:54 PM 35.6 °F 31.7 °F 35.6 °F 100% 29.90 in 10.0 mi SSE 4.6 mph - N/A   Overcast